Terminal Aerodrome Forecast
Issued by NWS

Home | Current Version | Previous Version | Text Only | Print | Product List | Glossary On
Versions: 1 2 3 4 5 6 7 8 9 10 11 12 13
000
FTUS46 KSEW 282300
TAFBLI
TAF
KBLI 282339Z 2900/2924 18010KT P6SM SKC
     FM291100 17006KT P6SM OVC025
     FM291400 17008KT P6SM OVC015
     FM291700 17008KT P6SM VCSH OVC020
     FM292000 17009KT P6SM SHRA BKN025 OVC050=

USA.gov is the U.S. government's official web portal to all federal, state and local government web resources and services.